Zurück zum Katalog

USA 40 R/B DEB

LostUNKNOWN
NORAD 44055·DEBRIS·🇺🇸 United States

Gestartet Aug 8, 1989 von Cape Canaveral Space Force Station

Loading…

Nächste Überflüge (nächste 24 Stunden)

TLE

VeraltetSource: Space-Track

Epoche: Sep 15, 2024, 21:21 UTC

1 44055U 89061BU  24259.89026222  .00046555  00000-0  13767-1 0  9995
2 44055  56.9607 317.3592 2480888 160.5667 210.9822 10.06348839193630

Verfolge USA 40 R/B DEB in Echtzeit mit AllMySat

Download on the App Store